KDAY Airport Diagram

We have created a template for each of the higher traffic airports in the vZID airspace. They include KCMH, KCRW, KCVG, KDAY, KIND, KLEX and KSDF. You wil find usefull information including the airport diagram, weather, and specific airport procedures.

KDAY Weather

[Source: ADDS]
METAR
KDAY 260556Z 21008KT 10SM CLR 21/16 A3006 RMK AO2 SLP170 T02110156 10267 20211 50006 =
KDAY 260540Z 2606/2706 22008KT P6SM SCT150 BKN250 FM261400 25008KT P6SM FEW150 FM261900 25008KT P6SM SCT050 FM262300 25009KT P6SM VCTS BKN050CB FM270200 23005KT P6SM FEW150
TAF
KDAY 260540Z 2606/2706 22008KT P6SM SCT150 BKN250 FM261400 25008KT P6SM FEW150 FM261900 25008KT P6SM SCT050 FM262300 25009KT P6SM VCTS BKN050CB FM270200 23005KT P6SM FEW150 =

KDAY Operations

Approach/Departure operations for KDAY were consolidated into the Columbus TRACON quite some time back. We have recently made that change here at ZID. When arriving/departing the Dayton Airport and airports in the surrounding area, contact with the Columbus APP/DEP controller, if online, should be expected.

Calm Wind Configuration is runways 24L/R. This configuration is used up to and including 10kts.

Runway 24L typically departs south and east, except larger aircraft requiring a longer runway.

Runway 24R typically departs north and west.

 

JSN Epic template designed by JoomlaShine.com